Location: Newark
(29.9790°N, 31.1340°E)
Time: 21:08:42
(UTC+00:00)

Vanguard 3 - Pass Details

Date: 23 January 2020
Orbit: 508 x 3263 km, 33.3° (Epoch: 22 February)

Event Time Altitude Azimuth Distance (km) Brightness Sun altitude
Rises 16:10:11 0° 250° (WSW) 7,054 14.3 -10.2°
Reaches altitude 10° 16:14:45 10° 251° (WSW) 6,149 13.2 -11.1°
Maximum altitude 16:35:07 90° 346° (NNW) 2,982 9.9 -15.4°
Enters shadow 16:46:57 22° 75° (ENE) 4,074 10.0 -17.9°
